Hourly Data Report for April 03, 2020

TORONTO CITY
ONTARIO
Current Station Operator: ECCC - MSC

43°40'00.000" N
79°24'00.000" W
112.50 m
6158355
71508
XTO

Download Data

Hourly Data (April 2020)
Hourly Data Report for April 3, 2020
TIME
LST
Temp Definition
°C
Dew Point Definition
°C
Rel Hum Definition
%
Precip. Amount Definition
mm

Wind Dir Definition
10's deg

Wind Spd Definition
km/h
Visibility Definition
km
Stn Press Definition
kPa
Hmdx Definition


Wind Chill Definition


Weather Definition


00:00 6.5 -5.8 41 0.0       100.13     LegendNANA
01:00 6.5 -4.2 46 0.0       100.12     LegendNANA
02:00 5.7 -3.4 52 0.0       100.08     LegendNANA
03:00 4.3 -3.3 58 0.0       100.10     LegendNANA
04:00 3.8 -2.7 63 0.0       100.11     LegendNANA
05:00 3.2 -2.5 66 0.0       100.15     LegendNANA
06:00 2.9 -2.4 68 0.0       100.15     LegendNANA
07:00 3.4 -2.0 68 0.0       100.17     LegendNANA
08:00 4.5 -2.4 61 0.0       100.19     LegendNANA
09:00 6.0 -1.4 59 0.0       100.21     LegendNANA
10:00 7.3 -0.4 58 0.0       100.22     LegendNANA
11:00 8.2 -0.3 55 0.0       100.25     LegendNANA
12:00 9.8 0.9 54 0.0       100.23     LegendNANA
13:00 10.1 0.2 50 0.0       100.19     LegendNANA
14:00 11.7 1.7 50 0.3       100.17     LegendNANA
15:00 11.5 1.3 50 0.2       100.17     LegendNANA
16:00 10.9 1.7 53 0.2       100.20     LegendNANA
17:00 10.3 2.3 58 0.0       100.25     LegendNANA
18:00 9.1 3.1 66 0.2       100.31     LegendNANA
19:00 7.7 3.7 76 0.2       100.35     LegendNANA
20:00 7.2 3.9 80 0.2       100.39     LegendNANA
21:00 7.1 3.6 79 0.0       100.40     LegendNANA
22:00 7.0 3.8 80 0.0       100.37     LegendNANA
23:00 7.2 3.7 79 0.0       100.37     LegendNANA

Notes on Data Quality.

Legend

  • E = Estimated
  • M = Missing
  • NA = Not Available*
  • [empty] = Indicates an unobserved value
Date modified: